RH
56 50 35 26 21 17 17 17 24 100 100 100 100 100 100 100 100 99 93 82 85 73 82 73 88 85 100 96 98 100 48 28 39 48 58 84 100 79 80 63 79 91 99
56 42 34 27 21 16 17 21 18 89 100 100 100 100 100 100 100 100 89 86 75 55 44 51 51 72 75 60 46 58 46 32 32 73 73 72 100 100 93 61 49 64 79
46 37 34 27 21 17 16 21 20 36 100 92 100 100 100 100 100 100 98 100 100 84 85 91 82 80 78 60 71 62 53 35 24 31 70 75 91 100 100 100 83 72 86
51 43 35 30 30 20 20 21 24 35 81 100 100 100 100 100 100 100 100 100 100 94 96 97 87 98 95 83 79 83 60 38 29 25 33 74 73 91 86 100 100 100 100
52 46 38 36 38 26 24 21 22 25 54 99 100 100 100 100 100 100 100 100 100 100 100 100 100 100 97 91 80 65 62 71 40 32 30 33 56 66 63 92 100 100 98
58 48 37 37 40 43 36 26 22 26 38 64 100 100 100 100 100 100 100 100 100 100 100 100 100 100 100 100 100 98 85 70 78 36 39 26 34 100 98 81 90 100 100
41 40 38 44 46 41 40 42 27 24 24 34 71 99 100 100 100 100 100 100 100 100 100 100 100 100 100 100 100 100 100 80 96 64 47 30 31 55 100 100 100 100 100
38 39 40 47 48 49 52 41 42 26 28 28 26 29 32 47 70 84 90 98 100 100 100 100 100 100 100 100 100 100 100 100 88 84 92 64 39 32 58 100 100 93 66
42 42 45 52 53 53 52 54 43 34 27 27 27 27 26 24 25 31 47 62 73 90 93 96 100 100 100 100 100 100 100 100 100 98 98 100 66 43 74 81 49 44 62
39 44 54 63 67 75 76 71 64 53 36 30 27 25 27 26 22 23 26 32 42 52 60 66 72 96 100 100 100 100 100 100 100 100 100 100 100 71 46 46 38 32 30
38 54 68 73 76 84 82 78 74 56 50 57 56 52 52 48 39 31 26 26 25 34 45 52 51 62 76 99 100 100 100 100 100 100 100 100 100 100 67 53 43 42 37
52 60 69 85 90 82 82 83 88 81 68 57 56 60 59 58 53 45 41 38 33 30 27 25 31 37 56 91 100 100 100 100 100 100 100 100 100 100 98 80 63 44 58
66 83 86 100 95 93 96 91 88 89 85 73 73 79 73 61 59 50 38 43 46 48 45 38 35 32 32 32 56 98 100 100 100 100 100 100 100 100 71 99 99 74 60
66 90 100 100 100 95 91 95 91 93 81 75 77 82 83 79 69 63 46 42 41 43 41 47 50 45 39 34 30 32 65 100 100 100 100 100 100 100 100 100 100 97 99
100 100 100 100 100 97 100 100 100 97 82 81 92 89 83 81 73 53 53 55 43 35 32 29 28 27 24 27 29 24 29 38 87 100 100 100 100 100 100 100 100 100 100
100 100 100 100 100 100 100 100 100 98 76 87 83 81 90 85 79 78 58 38 33 41 42 38 24 17 13 11 13 16 23 32 37 42 85 100 100 100 100 100 100 100 100
100 100 100 100 97 98 97 99 94 90 72 76 98 84 76 80 74 41 44 55 54 39 28 17 12 10 10 10 9 10 11 18 33 41 42 44 62 76 81 82 94 100 100
100 100 100 96 89 100 100 99 95 73 66 71 68 63 65 57 51 77 80 55 48 29 15 11 11 9 9 10 10 11 11 10 18 36 46 52 55 60 70 67 62 65 81
100 100 98 79 99 94 100 89 71 58 64 65 61 53 44 51 66 54 59 54 32 19 12 11 10 10 10 11 12 13 14 14 13 17 34 47 55 63 67 72 74 71 77
100 100 75 91 100 100 91 85 56 62 73 71 49 43 54 49 48 46 38 23 19 13 12 10 10 11 11 11 13 14 14 15 18 18 18 28 45 54 61 71 79 84 83
100 91 100 100 100 94 90 74 67 70 62 53 42 44 42 34 34 28 20 15 13 12 11 11 12 13 13 12 12 13 14 15 19 20 19 18 20 32 45 56 69 80 90
94 100 100 100 95 100 75 54 58 59 64 47 37 33 29 24 22 17 14 12 12 13 12 13 14 13 13 13 13 13 14 15 16 18 19 21 18 21 29 38 48 58 66
100 100 100 100 100 93 62 52 61 56 40 35 32 23 18 17 16 12 11 12 13 13 13 13 12 12 13 13 13 13 14 14 15 16 16 16 20 21 19 20 25 32 37
100 100 100 100 98 62 48 46 46 33 29 23 18 15 14 13 12 11 12 12 11 12 12 11 11 12 11 11 12 13 13 14 14 14 14 16 17 16 15 15 17 19 21
100 100 100 100 69 40 37 39 29 23 16 14 13 12 12 11 10 11 12 11 11 10 11 12 12 12 13 12 11 10 11 11 13 14 13 14 15 15 16 16 17 18 20
100 100 100 84 53 34 31 25 20 13 12 12 11 10 11 10 10 11 10 10 10 11 11 10 10 10 10 11 12 12 12 11 10 10 12 13 13 14 15 18 20 20 21
Wind_Speed
60 63 61 60 63 61 51 44 32 32 34 18 27 24 40 39 41 42 43 40 33 35 31 31 31 47 46 40 37 39 53 54 46 44 39 39 42 40 38 37 38 42 43
61 62 66 64 60 56 52 43 37 40 41 43 34 34 39 41 42 45 46 47 46 37 43 47 51 54 55 61 59 70 50 52 55 47 47 41 45 41 49 45 44 44 45
62 63 67 68 61 52 46 41 44 44 43 52 47 44 46 47 51 58 56 58 53 56 56 44 53 56 55 61 62 57 62 61 48 52 58 50 46 45 49 48 48 48 50
59 64 65 70 66 54 46 46 41 49 49 49 53 51 50 53 56 54 58 61 60 58 56 61 59 61 58 60 62 61 61 47 52 58 60 55 53 54 52 54 55 50 49
61 64 65 70 69 58 46 45 49 42 51 58 65 69 68 64 59 56 60 63 64 66 65 64 62 63 62 63 69 64 60 61 54 57 54 57 57 57 56 56 56 54 55
64 63 64 66 66 64 57 47 44 41 43 57 64 72 78 81 81 77 70 66 65 63 63 68 67 66 65 66 62 67 71 66 56 53 53 58 60 63 60 62 61 61 62
63 63 63 64 67 71 67 56 48 43 45 49 69 73 79 82 82 82 82 85 84 77 73 69 68 69 70 70 76 72 73 68 71 69 61 66 59 63 64 64 64 64 61
63 66 66 67 68 74 70 71 45 45 46 51 57 62 67 77 85 88 92 93 93 93 89 86 80 78 77 78 79 78 78 80 83 75 74 66 64 60 67 66 64 62 61
66 69 69 71 74 73 79 77 68 41 42 46 50 57 66 75 79 86 94 98 102 101 100 101 93 86 81 83 84 86 89 84 80 77 81 79 71 69 66 71 67 67 66
70 71 72 74 77 76 82 82 81 69 62 58 58 59 61 68 78 85 89 96 100 106 111 106 106 102 96 88 84 86 87 85 85 82 83 89 82 72 71 70 68 67 66
72 73 75 76 80 81 85 88 86 86 76 71 67 67 67 68 71 75 81 87 97 102 101 106 110 107 111 105 96 91 89 92 90 89 93 92 90 84 77 78 73 72 71
74 75 78 79 85 88 91 93 94 89 85 78 75 71 67 66 66 66 70 78 83 87 91 101 104 106 106 109 112 113 100 97 98 96 92 95 93 92 88 86 78 74 76
78 79 82 89 91 94 96 97 100 97 94 89 85 80 76 73 71 69 66 63 67 74 80 84 89 95 104 110 113 115 116 107 102 102 99 99 98 97 92 92 87 81 76
81 86 87 97 100 101 102 103 107 103 101 91 87 84 81 77 75 74 69 63 59 62 69 77 83 88 96 104 114 115 118 119 114 108 105 103 96 91 90 90 91 91 85
86 90 97 102 104 106 108 110 111 111 106 93 88 86 84 81 79 75 72 70 69 63 64 70 81 87 93 96 103 109 114 117 120 119 116 112 107 103 100 98 97 96 95
90 96 103 106 107 109 110 112 115 115 105 93 88 85 84 83 81 78 75 72 70 71 70 73 74 78 83 88 90 94 97 110 117 120 122 122 120 115 111 109 108 107 103
93 101 105 106 110 111 112 115 120 115 102 91 88 87 85 81 80 74 75 79 79 78 74 70 70 74 73 73 74 77 82 91 105 116 119 120 120 117 116 114 111 110 111
98 103 108 112 116 116 117 121 122 118 101 91 89 87 85 80 76 82 82 81 81 78 72 68 65 64 62 63 64 67 74 82 92 102 111 116 117 117 115 115 114 111 110
107 112 114 119 120 122 124 131 127 117 107 98 94 90 86 83 83 80 83 84 79 74 70 64 60 57 56 56 57 62 67 74 80 89 99 108 114 115 115 116 116 116 115
114 119 121 124 126 128 136 137 129 117 108 102 98 92 89 86 85 84 80 74 74 71 64 58 56 54 53 52 54 57 62 65 70 79 87 97 104 109 113 114 115 115 117
119 122 124 129 132 136 142 138 127 115 107 102 98 94 92 90 88 82 75 72 67 64 60 56 52 50 51 51 51 54 58 60 64 70 76 82 91 97 104 111 115 114 115
123 128 131 134 139 139 143 133 123 113 105 102 99 95 93 89 82 76 72 67 62 60 55 52 51 50 50 50 50 52 55 58 60 64 67 71 78 84 90 97 104 111 115
131 132 137 138 143 146 140 128 115 109 104 100 99 97 90 82 76 71 67 63 60 56 53 50 50 51 49 50 50 51 53 55 58 59 62 66 71 76 80 84 90 95 100
133 138 142 145 148 146 136 121 111 106 102 99 95 89 82 75 71 67 62 60 57 53 51 49 48 48 49 50 51 50 52 53 55 57 59 60 67 70 72 75 78 80 82
138 143 146 145 150 141 123 113 107 102 99 93 87 81 74 70 65 61 58 55 53 52 50 47 45 45 46 48 49 49 50 51 51 55 56 59 64 66 67 67 68 70 73
142 146 147 152 150 128 115 107 104 100 92 85 79 73 68 65 60 57 54 51 50 47 44 43 42 43 43 44 46 48 49 49 49 51 54 58 61 61 62 64 67 68 69
Wind_Direction
334 333 331 329 331 327 318 290 264 255 250 221 229 231 242 255 266 258 256 258 259 271 255 255 249 251 263 270 297 272 288 294 289 278 270 268 262 266 259 253 254 253 254
333 334 332 330 329 325 316 290 265 248 247 240 234 235 239 252 260 268 273 270 277 264 261 266 271 253 261 262 263 272 281 286 284 270 265 261 263 254 259 260 250 251 253
334 333 330 337 335 326 317 303 272 240 237 242 235 247 257 259 267 274 276 272 268 269 272 268 253 259 263 265 263 264 275 276 276 276 265 262 254 258 260 257 260 255 255
331 331 334 340 343 332 318 310 290 262 243 236 239 247 255 268 270 277 275 276 276 271 263 272 269 264 262 264 261 264 270 267 276 278 270 261 254 254 258 254 251 247 254
329 331 336 341 346 339 319 312 307 278 259 252 248 248 256 260 261 266 272 273 275 275 274 269 262 264 263 262 263 270 264 267 267 267 266 271 264 254 251 251 253 248 247
327 329 335 340 344 350 337 314 305 300 273 262 261 256 258 260 262 266 265 268 268 270 270 271 268 264 258 257 255 267 268 268 265 262 263 267 264 258 255 256 259 258 257
328 331 333 339 340 345 343 339 312 297 286 267 252 259 265 267 268 271 272 269 270 266 267 268 263 260 258 258 264 264 264 265 265 264 258 262 258 255 253 252 252 253 253
328 328 332 337 340 343 343 343 323 306 293 280 275 273 272 270 269 269 268 270 270 271 268 265 265 263 260 258 259 262 253 262 262 258 255 254 255 255 252 252 250 252 257
326 328 334 337 340 339 342 341 339 309 303 298 286 274 268 268 270 268 268 267 266 266 266 266 261 261 261 262 260 258 255 258 253 254 252 253 250 255 248 249 253 256 254
325 328 332 333 335 335 338 339 338 331 320 316 304 291 283 273 266 264 264 263 263 264 263 262 263 260 258 255 253 254 254 252 251 250 250 250 253 251 252 250 255 254 256
325 326 329 328 333 334 334 335 336 335 326 320 314 306 296 291 286 278 270 267 264 260 260 258 258 259 258 256 253 249 250 249 247 248 250 247 248 252 249 251 251 250 254
325 324 326 329 329 332 332 333 333 330 327 321 315 311 303 296 291 286 281 278 276 270 262 257 256 255 254 254 253 252 248 245 249 248 248 249 246 246 251 248 250 252 251
324 324 328 329 328 329 330 330 331 329 324 321 318 314 311 306 300 295 289 280 274 274 270 267 262 255 252 249 250 249 249 245 245 245 245 246 249 249 249 247 247 250 250
326 328 326 327 327 328 329 330 329 327 325 321 320 318 313 310 305 304 299 294 285 277 271 267 264 262 259 253 249 247 247 247 246 243 244 245 244 246 246 248 248 248 248
325 328 325 326 326 328 327 328 328 327 324 321 320 315 313 310 308 306 304 299 291 283 272 268 264 262 261 259 257 252 246 246 245 244 243 243 242 244 245 246 250 251 251
327 325 324 324 325 325 325 325 327 326 323 320 320 316 314 310 309 306 301 298 299 297 292 287 280 271 265 263 261 256 250 245 245 245 245 246 247 247 245 245 248 251 253
324 321 322 322 323 323 324 325 326 325 323 321 317 315 314 310 306 304 308 307 302 297 293 287 282 278 275 268 261 257 251 245 243 244 245 246 246 247 248 249 248 247 250
320 322 321 322 323 324 325 325 325 324 323 320 316 316 312 309 313 312 307 304 302 297 292 289 286 280 277 270 263 257 251 247 243 242 242 244 245 246 246 248 250 249 249
320 321 321 322 324 323 324 325 325 326 324 323 319 316 314 316 313 310 309 306 299 294 292 290 286 281 278 271 265 259 253 249 246 244 243 242 242 244 245 245 247 248 249
318 319 321 322 323 325 325 325 326 325 323 318 317 315 314 313 312 310 306 300 297 295 292 288 284 281 277 271 265 261 258 252 249 246 245 243 242 242 243 245 246 247 248
318 318 319 322 324 323 326 326 325 322 318 316 315 315 314 313 311 308 304 300 298 295 292 290 286 280 276 272 269 265 262 258 254 250 248 247 244 244 243 243 244 246 247
317 320 323 321 322 324 325 323 321 318 316 314 313 312 312 310 307 305 301 300 298 295 293 291 287 283 278 273 270 267 265 261 257 254 252 249 247 246 245 245 244 246 247
320 320 320 321 321 322 324 321 317 314 313 312 311 309 308 307 306 302 300 299 296 294 293 291 288 285 281 278 274 269 266 264 261 257 255 253 251 249 247 247 247 248 249
318 318 320 320 322 321 319 316 313 311 311 310 308 307 308 306 303 301 300 297 296 297 294 289 286 283 280 277 273 269 267 265 261 259 257 255 253 252 251 249 249 250 251
315 317 318 320 320 317 315 312 311 309 309 308 308 308 306 304 302 300 298 297 297 295 294 291 288 285 280 276 275 272 269 266 263 261 259 257 255 254 255 255 254 254 252
314 314 316 317 317 314 312 311 310 308 307 306 306 305 304 303 302 299 298 299 298 295 292 292 290 284 281 278 274 273 271 270 266 263 259 256 255 254 254 255 255 255 256